Wind_Speed
8 8 9 8 7 6 5 4 3 3 3 3 4 4 4 5 5 5 4 5 5 5 6 6 5 6 5 5 6 6 6 6 7 7 7 7 8 8 9 8 8 9 10
8 8 8 8 7 6 5 6 4 4 4 3 4 4 5 5 5 5 5 5 5 5 5 5 6 6 6 6 6 6 7 7 7 8 7 7 8 8 8 9 9 10 10
8 9 8 7 6 6 5 6 5 3 3 4 4 5 5 5 5 5 5 6 6 5 5 5 6 7 7 7 7 7 8 8 8 8 8 8 8 8 9 9 10 10 11
8 8 9 10 9 7 6 6 5 4 4 4 5 5 6 6 6 6 6 6 6 6 6 7 7 8 8 8 8 8 9 9 9 9 8 8 8 9 10 11 11 11 11
8 9 9 10 10 8 7 7 6 5 6 5 6 6 7 8 8 8 8 8 8 8 8 8 9 9 9 9 9 9 9 9 9 9 9 9 9 10 11 11 12 13 12
8 9 9 9 9 9 8 8 8 7 7 6 7 7 8 9 9 8 8 9 9 9 9 9 9 10 10 10 9 10 10 9 9 9 10 11 11 11 12 12 13 14 14
9 9 8 8 9 9 9 8 8 8 8 8 8 8 9 9 10 10 10 9 9 10 10 10 11 11 11 11 10 10 10 10 10 11 11 12 12 13 13 13 13 14 14
8 7 8 9 10 10 10 8 8 9 9 10 9 10 10 10 11 11 11 11 11 10 10 11 12 12 12 11 11 11 11 11 11 12 12 13 13 13 13 14 14 14 15
8 9 10 10 11 11 11 11 10 10 11 11 11 11 11 12 12 12 12 12 12 12 12 12 12 13 12 12 12 12 13 13 13 13 14 14 15 15 16 16 16 16 16
10 10 11 12 12 13 13 13 13 13 13 14 14 13 13 13 14 14 14 14 14 13 13 13 13 14 14 14 14 14 15 15 15 16 16 17 17 17 17 17 18 18 18
12 12 12 12 14 15 14 14 14 14 15 15 16 15 15 15 15 15 14 14 15 15 15 15 15 15 15 15 15 16 17 17 17 17 18 19 19 19 20 20 20 20 20
15 15 14 15 15 15 15 15 15 15 16 17 17 17 17 17 17 17 16 15 15 16 17 17 17 17 16 16 16 18 18 19 19 19 20 20 21 21 22 22 22 21 21
17 17 17 17 17 16 16 16 16 17 18 18 19 18 18 18 18 17 17 17 17 18 19 19 18 18 18 18 18 19 20 20 21 21 22 22 22 22 23 23 23 23 22
18 19 19 19 17 17 18 18 18 19 19 20 20 20 20 20 18 18 18 18 19 19 19 20 20 19 19 19 20 21 21 21 22 22 22 23 24 24 24 25 25 25 25
20 21 21 20 19 18 19 20 20 21 21 21 20 20 21 21 20 20 19 20 20 20 21 21 21 21 21 21 22 22 23 23 24 24 24 24 25 25 26 27 27 27 25
22 22 21 22 21 20 21 20 21 22 22 22 22 21 21 21 21 21 22 22 22 22 22 22 22 23 23 23 24 24 24 25 25 25 26 26 27 27 28 28 27 27 27
25 24 25 24 23 22 23 22 21 22 22 23 23 22 22 22 22 23 23 24 24 24 24 24 24 24 24 25 26 26 26 26 27 28 28 29 29 29 29 29 29 28 28
27 27 26 26 25 25 24 23 23 23 23 23 24 24 24 23 24 24 24 24 26 26 26 26 26 26 26 26 27 27 27 29 29 29 30 30 30 30 30 30 29 29 29
29 29 28 27 27 27 26 25 25 25 25 25 24 25 25 25 25 25 26 26 27 27 26 26 27 27 27 27 28 29 29 30 30 30 30 31 31 31 31 30 30 30 30
28 30 29 29 29 28 28 27 27 27 27 27 26 26 26 27 27 28 28 28 28 28 28 28 28 28 28 29 29 30 30 31 31 31 31 31 31 30 30 30 30 30 30
30 29 29 30 30 30 30 30 30 29 28 29 28 27 27 27 28 28 29 29 29 29 29 29 29 29 30 30 30 30 31 32 32 32 31 30 30 30 30 30 30 29 30
29 30 30 30 30 30 30 30 30 30 30 30 31 29 28 28 28 29 30 30 31 31 31 31 30 30 30 30 30 31 31 32 32 32 31 31 30 30 30 29 29 30 30
29 30 31 31 31 31 31 31 31 32 32 32 32 31 29 29 30 30 30 30 30 31 31 31 31 31 31 31 31 31 31 32 32 31 31 31 30 30 30 29 29 30 30
29 29 30 31 31 30 31 31 32 32 32 33 34 32 31 31 31 31 31 31 31 32 32 32 31 31 31 31 31 31 31 31 31 31 31 31 31 30 30 30 30 30 30
28 28 29 29 29 30 31 31 31 32 32 33 33 33 31 30 31 31 31 31 32 32 31 31 31 31 32 31 31 31 30 30 29 29 29 29 30 30 30 30 30 30 30
28 28 28 29 29 30 31 31 32 32 32 33 34 33 32 31 31 31 31 32 33 33 31 31 31 32 32 31 31 30 30 30 30 30 30 30 30 30 30 30 30 30 30
Wind_Direction
16 23 24 28 31 28 26 28 47 42 38 40 33 22 11 358 355 355 355 351 348 342 340 338 332 330 328 324 321 314 307 300 293 287 287 285 281 277 276 279 277 272 273
12 16 16 16 16 18 18 20 32 37 28 21 13 4 357 353 349 341 343 345 341 339 334 328 325 324 318 314 313 310 305 301 297 291 288 285 288 281 277 273 274 274 271
7 6 4 3 4 7 10 9 5 15 4 350 349 348 341 338 332 331 333 337 334 329 329 322 326 326 318 313 313 311 305 300 295 285 283 278 280 282 279 277 275 275 275
357 357 357 357 356 0 358 355 346 334 328 326 331 335 332 329 323 317 316 316 316 315 314 313 314 318 314 311 309 305 299 295 292 285 278 277 275 278 281 284 283 281 281
345 343 341 342 345 343 338 338 335 323 316 311 312 318 321 320 321 319 315 312 310 309 310 311 309 306 307 309 308 304 301 295 292 287 282 277 279 281 286 290 290 288 288
328 331 335 334 335 332 331 327 323 320 320 311 313 315 315 314 314 315 314 311 309 308 308 309 309 308 305 306 306 306 305 302 298 292 288 284 284 288 291 291 289 288 287
316 320 320 322 322 323 325 325 325 324 321 315 310 310 310 309 308 310 311 310 310 310 308 309 309 307 305 300 300 303 301 300 297 293 288 287 285 287 290 290 289 288 288
312 312 311 313 319 321 321 319 313 313 312 310 309 304 303 303 302 303 304 304 305 308 308 307 309 307 302 298 295 296 293 295 296 292 290 288 288 288 290 291 290 288 286
304 306 311 314 315 316 315 310 306 304 304 302 300 301 299 300 297 298 299 299 300 300 301 304 307 306 303 297 289 290 289 289 290 289 288 288 287 288 290 290 290 288 288
298 302 306 309 308 310 309 306 302 301 299 299 300 303 302 298 295 295 294 294 295 296 298 299 300 301 300 296 292 286 287 288 285 285 285 286 288 288 287 287 288 287 286
296 301 303 306 304 304 302 301 298 297 298 298 298 298 298 296 293 293 290 289 290 294 294 296 296 297 297 300 296 294 290 290 289 286 284 284 287 288 288 287 288 288 286
292 295 298 299 301 299 296 296 295 295 295 294 294 294 294 294 292 293 290 290 291 294 294 293 295 296 295 296 297 296 293 290 293 290 288 287 288 288 288 287 287 287 288
287 290 291 292 295 295 292 292 292 293 293 291 291 291 291 292 290 289 288 288 290 292 293 292 292 293 293 293 295 295 294 293 291 291 289 289 289 288 288 286 286 286 288
284 285 285 285 288 289 290 290 289 289 289 290 289 288 288 289 288 287 288 288 288 290 292 292 290 289 289 290 293 292 292 290 290 290 287 288 289 289 288 288 287 286 287
284 283 279 283 282 285 287 289 289 289 287 287 286 285 284 284 283 284 285 287 290 292 293 293 291 289 287 288 291 290 290 289 290 289 288 288 289 290 290 289 288 288 288
281 282 281 282 283 285 285 284 286 287 287 286 284 283 282 282 282 282 283 285 287 289 290 292 290 288 287 288 289 289 289 288 288 289 288 288 289 290 290 291 291 291 290
280 281 281 282 283 283 283 281 285 287 287 286 284 283 283 283 283 282 282 283 284 286 287 288 289 288 288 289 288 288 287 285 285 286 287 288 289 290 291 292 292 290 289
279 281 282 282 284 286 285 285 285 285 284 284 284 283 281 281 281 280 281 283 284 284 285 285 285 286 288 288 289 289 288 286 284 285 286 288 289 290 292 292 291 289 288
280 282 282 282 281 283 283 284 284 285 284 283 283 283 283 282 281 280 281 282 281 283 283 285 285 285 286 287 287 287 287 287 288 289 288 289 290 290 291 291 289 289 289
279 280 281 281 280 281 280 281 282 281 282 283 283 282 281 281 281 281 281 281 281 282 282 284 285 286 285 286 286 286 287 289 289 289 289 289 289 290 290 290 289 288 289
278 279 279 280 279 280 280 281 282 279 280 281 282 282 282 282 281 281 281 281 281 282 283 283 283 283 284 285 284 286 288 289 288 288 289 290 289 289 289 290 290 289 289
279 279 279 279 281 281 280 280 281 279 278 279 280 282 282 282 281 280 280 280 281 282 284 284 283 283 284 285 286 287 287 287 288 288 289 289 288 287 287 289 288 288 288
281 279 279 279 280 281 280 280 280 280 278 278 279 280 281 282 281 281 280 281 281 282 283 284 283 283 284 285 287 288 288 288 288 288 288 288 288 287 287 289 289 288 287
284 281 279 279 280 281 281 282 282 281 280 281 280 279 279 280 282 282 282 281 281 281 283 282 282 282 283 285 287 289 289 288 287 288 288 287 288 286 287 288 289 290 289
284 282 281 282 281 281 283 283 283 283 283 284 285 282 279 278 280 281 281 281 281 281 281 282 283 283 284 284 286 287 288 289 288 289 289 288 288 286 286 287 288 288 288
282 282 282 282 282 283 284 283 284 284 284 286 284 284 282 281 281 280 280 281 280 279 280 281 282 282 283 283 285 286 287 287 288 289 288 287 287 286 286 287 286 287 287
Height
5913 5912 5911 5910 5908 5907 5907 5906 5906 5906 5905 5905 5904 5904 5904 5903 5902 5901 5900 5900 5899 5898 5897 5896 5895 5895 5894 5893 5892 5891 5890 5890 5889 5889 5888 5888 5887 5887 5886 5885 5885 5885 5884
5913 5912 5911 5910 5908 5908 5907 5906 5905 5905 5905 5904 5904 5903 5903 5902 5901 5901 5900 5899 5898 5897 5896 5895 5894 5893 5892 5891 5890 5890 5889 5888 5887 5887 5886 5886 5885 5884 5884 5883 5883 5882 5881
5913 5912 5911 5910 5908 5907 5906 5906 5905 5904 5904 5904 5903 5902 5902 5901 5901 5900 5899 5898 5897 5895 5894 5893 5892 5892 5891 5890 5889 5888 5887 5886 5885 5885 5884 5884 5883 5882 5881 5881 5880 5879 5879
5912 5911 5910 5909 5908 5907 5906 5905 5904 5903 5903 5903 5902 5901 5900 5900 5899 5898 5897 5896 5895 5894 5892 5892 5891 5890 5889 5888 5887 5886 5885 5884 5883 5882 5881 5881 5881 5880 5879 5878 5877 5876 5876
5911 5910 5910 5909 5908 5906 5905 5904 5903 5902 5902 5901 5901 5900 5899 5898 5897 5896 5895 5894 5893 5892 5890 5889 5889 5888 5886 5886 5884 5883 5882 5881 5880 5879 5879 5878 5878 5877 5877 5875 5874 5873 5872
5909 5909 5908 5908 5907 5905 5904 5902 5902 5901 5900 5899 5899 5898 5897 5896 5895 5894 5893 5892 5891 5889 5888 5887 5886 5885 5884 5883 5882 5880 5879 5878 5877 5876 5876 5875 5875 5874 5873 5872 5871 5870 5869
5907 5907 5906 5906 5905 5904 5902 5900 5900 5899 5898 5897 5896 5895 5895 5894 5893 5892 5891 5889 5888 5887 5886 5884 5883 5882 5881 5880 5879 5878 5876 5875 5874 5873 5872 5872 5871 5870 5869 5869 5868 5866 5865
5905 5905 5904 5904 5903 5902 5900 5898 5898 5897 5896 5895 5894 5893 5892 5891 5890 5889 5888 5887 5885 5884 5883 5881 5880 5879 5878 5876 5875 5874 5873 5872 5871 5870 5869 5868 5867 5866 5865 5865 5864 5863 5862
5902 5902 5902 5901 5900 5899 5898 5897 5896 5895 5894 5892 5891 5890 5889 5889 5888 5886 5885 5883 5882 5881 5880 5878 5877 5875 5874 5873 5871 5870 5869 5868 5867 5866 5865 5865 5864 5862 5861 5860 5859 5859 5857
5899 5898 5898 5897 5896 5896 5895 5894 5893 5891 5890 5889 5888 5887 5886 5884 5883 5882 5881 5880 5879 5877 5876 5875 5873 5872 5870 5869 5867 5866 5865 5864 5863 5862 5861 5860 5859 5858 5857 5856 5854 5853 5853
5895 5895 5894 5893 5893 5892 5891 5890 5889 5888 5886 5885 5884 5883 5882 5880 5878 5877 5876 5875 5874 5873 5872 5870 5869 5867 5866 5864 5863 5861 5861 5859 5858 5857 5856 5855 5854 5853 5851 5850 5849 5848 5847
5891 5890 5890 5889 5889 5888 5886 5886 5885 5884 5882 5881 5879 5878 5877 5875 5874 5872 5872 5870 5869 5868 5867 5866 5864 5863 5861 5860 5858 5857 5855 5854 5853 5851 5850 5849 5848 5846 5845 5844 5842 5841 5840
5886 5886 5885 5884 5883 5882 5881 5880 5880 5878 5877 5876 5874 5873 5872 5870 5869 5868 5867 5865 5864 5863 5861 5860 5859 5857 5856 5855 5853 5852 5850 5848 5847 5845 5844 5842 5841 5840 5838 5837 5835 5834 5833
5882 5881 5880 5879 5878 5877 5876 5875 5874 5873 5871 5870 5868 5867 5866 5864 5862 5862 5861 5860 5858 5857 5856 5854 5853 5852 5851 5849 5847 5846 5845 5843 5841 5839 5838 5836 5835 5833 5831 5830 5828 5826 5825
5876 5875 5874 5872 5871 5871 5870 5869 5868 5866 5865 5863 5862 5861 5860 5858 5857 5856 5855 5854 5853 5852 5850 5849 5848 5846 5845 5843 5842 5840 5838 5837 5835 5833 5831 5829 5828 5826 5824 5822 5821 5819 5817
5870 5869 5868 5867 5866 5865 5864 5863 5861 5860 5858 5857 5856 5855 5854 5853 5852 5851 5849 5848 5847 5846 5844 5843 5841 5840 5838 5837 5835 5833 5831 5829 5828 5826 5824 5822 5820 5819 5817 5815 5813 5811 5810
5863 5862 5862 5860 5859 5857 5856 5855 5854 5853 5852 5850 5849 5848 5847 5846 5845 5844 5843 5842 5840 5839 5838 5836 5834 5833 5831 5830 5828 5826 5824 5822 5820 5818 5817 5815 5813 5811 5809 5807 5805 5803 5801
5856 5856 5855 5854 5852 5850 5849 5848 5847 5846 5845 5844 5842 5840 5839 5838 5837 5836 5835 5834 5833 5832 5830 5829 5827 5825 5824 5822 5820 5818 5816 5814 5812 5810 5809 5807 5804 5802 5800 5799 5796 5794 5793
5848 5848 5847 5846 5845 5844 5843 5841 5840 5839 5837 5836 5835 5833 5832 5831 5830 5828 5828 5827 5825 5824 5822 5821 5819 5817 5816 5814 5812 5810 5808 5806 5804 5802 5800 5798 5796 5794 5792 5790 5788 5786 5783
5840 5839 5838 5838 5837 5836 5835 5834 5833 5831 5830 5829 5827 5826 5825 5823 5822 5821 5820 5818 5817 5815 5813 5812 5810 5809 5807 5806 5804 5802 5799 5797 5795 5793 5791 5789 5787 5784 5782 5780 5779 5777 5775
5833 5832 5830 5829 5828 5828 5826 5825 5825 5823 5822 5820 5819 5817 5815 5814 5813 5812 5811 5809 5808 5806 5805 5803 5802 5800 5799 5797 5795 5793 5791 5789 5786 5784 5782 5780 5777 5775 5774 5772 5770 5768 5766
5824 5823 5822 5821 5819 5818 5817 5816 5816 5814 5813 5811 5809 5807 5806 5805 5804 5803 5802 5800 5799 5797 5796 5794 5792 5791 5790 5788 5786 5784 5782 5780 5777 5775 5773 5770 5769 5767 5765 5763 5761 5758 5756
5815 5814 5813 5812 5811 5809 5808 5807 5806 5804 5803 5802 5800 5799 5797 5796 5795 5794 5792 5791 5789 5788 5787 5785 5784 5782 5781 5779 5777 5775 5772 5770 5768 5765 5763 5761 5759 5758 5756 5753 5751 5749 5747
5807 5805 5803 5802 5801 5800 5799 5797 5796 5795 5794 5793 5791 5789 5788 5786 5786 5784 5783 5782 5780 5779 5777 5776 5774 5773 5771 5769 5767 5765 5763 5761 5758 5756 5754 5752 5750 5748 5746 5744 5742 5740 5738
5798 5796 5794 5793 5792 5791 5789 5788 5786 5785 5784 5783 5781 5779 5777 5777 5775 5774 5773 5772 5771 5769 5768 5766 5765 5763 5762 5760 5758 5756 5754 5752 5750 5748 5745 5743 5741 5739 5737 5735 5733 5731 5729
5788 5787 5785 5784 5783 5781 5780 5778 5777 5775 5774 5773 5771 5769 5767 5766 5765 5764 5763 5762 5761 5759 5758 5757 5755 5754 5752 5751 5749 5747 5745 5743 5741 5739 5737 5735 5732 5730 5728 5726 5724 5722 5720